{"data":{"norad_id":57740,"epoch":"2026-09-20T04:59:00.830400Z","epoch_age_seconds":173774,"freshness":"STALE","line1":"1 57740U 23131J   26263.20764850 -.00000167  00000+0  34518-5 0  9994","line2":"2 57740  43.0032  80.8688 0001156 273.1589  86.9130 15.27586377170526","mean_motion":15.27586377,"eccentricity":0.0001156,"inclination_deg":43.0032,"raan_deg":80.8688,"arg_perigee_deg":273.1589,"mean_anomaly_deg":86.913,"bstar":3.4518e-6,"rev_number":17052,"period_min":94.266355191514,"perigee_km":482.23685016864,"apogee_km":483.82315197929,"semimajor_km":6861.167001074,"source":"CELESTRAK","updated_at":"2026-09-21T09:00:33.680002Z"}}